CDT,Max TemperatureF,Mean TemperatureF,Min TemperatureF,Max Dew PointF,MeanDew PointF,Min DewpointF,Max Humidity, Mean Humidity, Min Humidity, Max Sea Level PressureIn, Mean Sea Level PressureIn, Min Sea Level PressureIn, Max VisibilityMiles, Mean VisibilityMiles, Min VisibilityMiles, Max Wind SpeedMPH, Mean Wind SpeedMPH, Max Gust SpeedMPH,PrecipitationIn, CloudCover, Events, WindDirDegrees
2013-3-1,40,36,32,36,32,30,96,88,79,30.09,30.05,30.02,10,5,1,17,7,21,0.09,8,Rain-Snow,313
2013-3-2,34,32,29,30,27,23,92,81,69,30.19,30.11,30.05,10,7,3,20,11,24,T,8,Snow,324
2013-3-3,42,33,23,26,18,13,81,55,29,30.20,30.15,30.10,10,10,10,14,9,17,0.00,4,,330
2013-3-4,59,47,34,35,26,20,70,51,32,30.13,29.98,29.82,10,10,10,21,10,26,T,4,Rain,142
2013-3-5,52,42,32,52,41,21,100,81,61,30.03,29.83,29.71,10,5,0,30,12,40,0.53,8,Fog-Rain-Snow,291
2013-3-6,40,35,29,27,25,23,78,69,59,30.34,30.21,30.02,10,10,6,25,14,33,T,7,Snow,329
2013-3-7,42,36,30,28,26,25,78,67,55,30.42,30.37,30.34,10,10,10,10,6,18,0.00,5,,45
2013-3-8,54,39,24,30,26,23,92,62,35,30.44,30.36,30.28,10,10,6,16,6,20,0.00,0,,77
2013-3-9,65,51,36,35,31,28,76,49,26,30.27,30.13,30.01,10,10,10,14,6,18,0.00,2,,141
2013-3-10,71,61,50,56,43,33,54,60,31,29.99,29.88,29.75,10,8,2,30,12,38,0.02,4,Rain,184
2013-3-11,55,47,38,54,42,30,96,79,62,30.01,29.84,29.77,10,8,2,21,10,26,0.98,8,Rain,244
2013-3-12,53,42,31,30,27,24,85,60,35,30.15,30.09,30.00,10,10,10,16,7,21,0.00,3,,286
2013-3-13,43,35,26,28,22,18,69,54,38,30.43,30.32,30.16,10,10,10,21,11,28,0.00,3,,334
2013-3-14,46,34,22,35,24,18,92,63,33,30.43,30.35,30.19,10,9,2,10,4,13,0.05,3,Rain,140
2013-3-15,75,54,32,47,39,30,92,64,35,30.17,29.98,29.82,10,10,7,20,9,26,0.01,0,,207
2013-3-16,75,61,47,50,46,40,71,56,41,29.97,29.84,29.78,10,9,6,22,13,28,0.00,3,,278
2013-3-17,47,45,43,43,41,39,96,86,76,30.00,29.92,29.76,10,5,1,16,9,22,0.07,8,Rain,56
2013-3-18,58,48,37,52,46,37,100,86,72,29.97,29.74,29.66,10,7,1,31,9,40,1.01,7,Rain-Thunderstorm,287
2013-3-19,53,43,32,36,26,15,96,60,24,30.21,30.14,30.04,10,8,0,17,6,23,0.00,1,Fog,336
2013-3-20,49,37,25,30,24,16,85,64,42,30.19,30.14,30.08,10,10,10,25,9,33,0.00,2,,320
2013-3-21,41,31,20,20,16,13,84,59,34,30.12,30.06,29.99,10,10,10,16,6,23,0.00,0,,336
2013-3-22,45,39,32,26,22,18,56,48,40,30.06,30.03,29.98,10,10,10,10,6,14,0.00,8,,92
2013-3-23,57,48,39,45,35,27,93,63,49,30.00,29.91,29.74,10,10,5,13,7,16,0.08,7,Rain,73
2013-3-24,50,42,34,46,40,28,96,86,75,29.73,29.57,29.45,10,6,1,30,12,39,0.45,8,Rain-Snow-Thunderstorm,305
2013-3-25,37,35,32,31,29,26,92,81,70,30.15,29.95,29.74,10,5,0,23,13,32,0.01,8,Fog-Snow,282
2013-3-26,41,35,29,30,28,25,92,72,51,30.36,30.23,30.14,10,8,3,16,8,22,T,8,Snow,301
2013-3-27,51,38,24,28,25,22,92,64,36,30.42,30.36,30.32,10,10,10,15,3,28,0.00,0,,338
2013-3-28,58,46,34,37,32,27,89,64,39,30.40,30.33,30.29,10,10,10,12,2,17,0.00,5,,91
2013-3-29,53,48,42,46,43,37,93,82,71,30.32,30.25,30.20,10,7,2,12,4,14,0.34,7,Rain,129
2013-3-30,54,48,41,52,47,39,100,86,71,30.21,30.07,29.91,10,3,0,12,5,15,0.31,8,Fog-Rain,117
2013-3-31,60,52,44,54,50,43,100,80,60,29.95,29.90,29.88,10,8,2,17,5,22,0.03,6,Rain,271